Home   Weather   Palm Springs   Past weeks

Flag for USA Past Weather in Palm Springs, California, USA — Yesterday and Last 2 Weeks

Now
92 °F

Clear.


Feels Like: 89 °F
Forecast: 73 / 95 °F
Wind: 14 mph from Northwest

Location: Palm Springs Regional Airport

Current Time: Sep 30, 2016 at 8:14:43 PM

Latest Report: Sep 30, 2016 at 7:53 PM


Visibility: 10 mi

Pressure: 29.85 "Hg

Humidity: 25%

Dew Point: 51 °F

Location of Palm SpringsLocation

Past Weather in Palm Springs — Graph

°F

Palm Springs Temperature Yesterday

Maximum temperature yesterday: 96 °F (at 3:53 PM)
Minimum temperature yesterday: 72 °F (at 4:53 AM)
Average temperature yesterday: 85 °F

High & Low Weather Summary for the Past Weeks

 TemperatureHumidityPressure
High106 °F (Sep 18, 3:53 PM)100% (Sep 20, 11:53 AM)30.09 "Hg (Sep 20, 11:53 AM)
Low65 °F (Sep 16, 5:53 AM)5% (Sep 16, 2:53 PM)29.65 "Hg (Sep 22, 4:53 PM)
Average83 °F33%29.91 "Hg
* Reported Sep 15 6:53 PM — Sep 30 6:53 PM, Palm Springs, Weather by CustomWeather, © 2016

Note: Actual official high and low records may vary slightly from our data, if they occured in-between our weather recording intervals... More about our weather records

Advertising

Palm Springs Weather History for the Previous 24 Hours

Scroll right to see more
 ConditionsComfort  
Time TempWeatherWind HumidityBarometerVisibility
6:53 PM
Fri, Sep 30
94 °FClear.8 mph23%29.83 "Hg10 mi
5:53 PM96 °FPassing clouds.8 mph22%29.83 "Hg10 mi
4:53 PM97 °FSunny.6 mph20%29.85 "Hg10 mi
3:53 PM98 °FSunny.6 mph19%29.86 "Hg10 mi
2:53 PM99 °FScattered clouds.5 mph19%29.88 "Hg10 mi
1:53 PM98 °FScattered clouds.5 mph18%29.90 "Hg10 mi
12:53 PM97 °FScattered clouds.6 mph20%29.94 "Hg10 mi
11:53 AM96 °FScattered clouds.3 mph21%29.97 "Hg10 mi
10:53 AM93 °FScattered clouds.No wind24%29.99 "Hg10 mi
9:53 AM91 °FScattered clouds.No wind25%30.01 "Hg10 mi
8:53 AM87 °FScattered clouds.3 mph29%30.01 "Hg10 mi
7:53 AM79 °FScattered clouds.No wind44%30.00 "Hg10 mi
6:53 AM80 °FSunny.8 mph36%29.99 "Hg10 mi
5:53 AM79 °FClear.6 mph38%29.98 "Hg10 mi
4:53 AM77 °FClear.5 mph44%29.98 "Hg10 mi
3:53 AM77 °FClear.3 mph48%29.98 "Hg10 mi
2:53 AM82 °FClear.7 mph34%29.98 "Hg10 mi
1:53 AM79 °FClear.3 mph45%29.98 "Hg10 mi
12:53 AM82 °FClear.No wind38%29.98 "Hg10 mi
11:53 PM
Thu, Sep 29
85 °FClear.No wind32%29.98 "Hg10 mi
10:53 PM88 °FClear.6 mph28%29.99 "Hg10 mi
9:53 PM86 °FClear.No wind32%29.98 "Hg10 mi
8:53 PM89 °FClear.6 mph27%29.98 "Hg10 mi
Weather by CustomWeather, © 2016

See weather overviewHow to use our weather pages